This demonstration page uses our WeatherBlox Daily Observations layout. Learn more.

36.17497, -115.13722

Hourly Observations for April 11, 2018

Temp ( °F °C ) Dew Point ( °F °C ) Humidity (%) Winds ( mph kmh ) Pressure ( in mb ) Visibility ( mi km ) Precip ( " mm )
12:53 am 00:53 Clear 79 26.1 22 -5.6 12 12 W 12 19 29.83 1010 10 16.09344 0 0
1:53 am 01:53 Clear 79 26.1 25 -3.9 14 14 S 14 22 29.83 1010 10 16.09344 0 0
2:53 am 02:53 Clear 76 24.4 24 -4.4 14 14 S 15 24 29.83 1010 10 16.09344 0 0
3:53 am 03:53 Clear 76 24.4 23 -5 14 14 S 20 31 29.77 1008 10 16.09344 0 0
4:39 am 04:39 Clear 75 23.9 23 -5 14 14 S 18 30 29.68 1005 10 16.09344 0 0
4:53 am 04:53 Clear 75 23.9 25 -3.9 15 15 S 22 35 29.77 1008 10 16.09344 0 0
5:44 am 05:44 Clear 75 23.9 26 -3.3 16 16 N 5 7 29.71 1006 10 16.09344 0 0
5:53 am 05:53 Clear 75 23.9 26 -3.3 16 16 S 12 19 29.77 1008 10 16.09344 0 0
6:12 am 06:12 Clear 75 23.9 25 -3.9 15 15 SSW 17 28 29.68 1005 10 16.09344 0 0
6:53 am 06:53 Sunny 73 22.8 28 -2.2 19 19 ENE 7 11 29.8 1009 10 16.09344 0 0
7:53 am 07:53 Sunny 76 24.4 26 -3.3 16 16 N 5 7 29.83 1010 10 16.09344 0 0
8:53 am 08:53 Sunny 79 26.1 27 -2.8 15 15 N 7 11 29.83 1010 10 16.09344 0 0
9:53 am 09:53 Sunny 83 28.3 25 -3.9 12 12 SW 17 28 29.83 1010 10 16.09344 0 0
10:53 am 10:53 Sunny 86 30 23 -5 10 10 SW 18 30 29.83 1010 10 16.09344 0 0
11:53 am 11:53 Sunny 88 31.1 21 -6.1 8 8 SW 10 17 29.77 1008 10 16.09344 0 0
12:53 pm 12:53 Sunny 88 31.1 21 -6.1 8 8 SSW 21 33 29.74 1007 10 16.09344 0 0
1:53 pm 13:53 Sunny 88 31.1 15 -9.4 7 7 SSW 24 39 29.71 1006 10 16.09344 0 0
2:53 pm 14:53 Sunny 90 32.2 9 -12.8 5 5 SSW 28 44 29.68 1005 10 16.09344 0 0
3:53 pm 15:53 Sunny 92 33.3 11 -11.7 5 5 WSW 23 37 29.65 1004 10 16.09344 0 0
4:53 pm 16:53 Sunny 90 32.2 20 -6.7 8 8 SW 24 39 29.65 1004 10 16.09344 0 0
5:53 pm 17:53 Sunny 88 31.1 21 -6.1 8 8 SW 15 24 29.62 1003 10 16.09344 0 0
6:53 pm 18:53 Sunny 85 29.4 20 -6.7 9 9 SSW 13 20 29.62 1003 10 16.09344 0 0
7:53 pm 19:53 Clear 83 28.3 20 -6.7 10 10 SW 14 22 29.62 1003 10 16.09344 0 0
8:53 pm 20:53 Clear 80 26.7 23 -5 12 12 S 13 20 29.62 1003 10 16.09344 0 0
9:53 pm 21:53 Clear 78 25.6 23 -5 13 13 SSW 20 31 29.59 1002 10 16.09344 0 0
10:53 pm 22:53 Clear 77 25 26 -3.3 15 15 SSW 25 41 29.59 1002 10 16.09344 0 0
11:53 pm 23:53 Clear 76 24.4 22 -5.6 13 13 SSW 13 20 29.59 1002 10 16.09344 0 0

Powered by AerisWeather